Theta_e
346 345 344 344 343 345 345 345 344 344 343 336 328 331 332 332 333 334 335 336 338 338 339 337 337 337 337 337 337 338 339 339 340 340 341 342 343 342 339 339 340 340 340 341 341 342 343 341 342 341 340 340 339 338 338 338 338 338 337 337 338 337 338 337 337 336 334 335 335 334 334 335 335 335 334 333 333 334 335 334 332 329 332 330 326
345 344 344 344 344 345 344 343 342 343 340 334 332 336 336 334 335 335 335 336 338 339 340 340 339 338 338 338 337 338 339 339 340 341 342 342 342 340 338 339 341 341 341 342 341 341 341 341 341 341 340 339 337 336 336 335 335 335 334 334 335 336 336 335 335 334 333 335 335 334 333 331 331 333 334 333 333 332 333 331 329 333 333 326 326
343 343 343 343 344 343 342 342 342 342 338 334 335 336 333 334 335 335 335 335 338 339 340 340 340 340 339 339 339 339 340 340 341 343 342 341 342 341 340 340 340 340 341 341 340 340 340 341 340 339 339 338 337 336 336 335 335 334 335 334 333 334 334 334 334 334 335 335 334 335 333 330 330 332 334 333 333 332 330 329 330 335 332 326 329
343 343 342 343 342 341 341 342 342 341 337 335 335 334 332 334 335 335 335 335 336 337 338 338 339 339 339 340 340 341 342 342 343 343 341 340 341 340 339 338 338 338 339 339 339 340 340 340 337 337 338 338 337 337 337 336 336 336 335 335 334 334 333 333 333 333 335 334 332 335 334 333 331 330 335 334 333 333 329 328 331 334 331 329 332
342 342 342 342 341 340 341 341 340 339 337 336 335 332 332 334 335 336 336 335 336 336 336 337 338 338 338 339 339 340 340 342 343 342 340 339 339 339 339 338 338 338 338 338 339 339 339 337 335 337 337 337 338 336 336 336 336 335 334 334 335 335 333 332 332 331 332 332 332 335 334 334 333 329 332 335 334 333 329 328 331 333 331 332 333
341 341 341 341 341 341 341 340 339 338 338 338 335 331 332 335 335 336 336 336 335 335 335 336 336 337 337 338 339 339 339 340 341 341 340 339 339 339 339 339 339 339 339 339 338 337 337 336 334 336 336 337 338 335 332 333 334 333 334 335 335 334 332 330 329 329 328 329 332 334 332 332 334 329 330 334 334 331 329 330 333 333 332 334 334
340 340 341 341 340 340 339 338 339 338 337 336 333 331 332 334 335 335 336 336 336 335 335 335 335 335 336 337 338 339 339 340 340 340 340 339 339 339 338 339 339 339 339 338 336 334 336 336 335 336 336 337 338 333 328 329 330 331 335 336 333 329 327 326 325 327 329 332 332 332 332 332 333 332 331 333 331 328 330 333 335 335 334 334 334
340 341 341 341 339 338 337 336 337 337 336 334 332 333 334 335 335 336 336 336 336 336 336 336 335 336 336 336 337 338 339 339 339 339 338 338 339 339 337 337 338 339 339 337 334 333 336 336 335 337 337 337 338 335 329 327 328 331 334 333 330 326 326 327 325 327 330 333 331 331 333 332 333 334 331 331 331 329 331 334 335 335 335 334 333
340 340 340 340 340 338 337 336 335 335 337 338 336 337 337 336 336 336 336 336 336 336 336 336 336 337 337 336 337 338 338 338 339 339 337 337 338 338 337 336 337 339 339 337 334 334 336 335 335 337 337 337 338 336 333 329 330 332 333 331 329 328 329 330 330 331 332 332 331 332 332 332 333 334 332 330 332 330 331 334 335 335 335 334 333
339 339 339 339 340 340 339 338 338 338 339 340 340 339 338 337 337 336 336 336 336 335 336 336 336 337 337 337 337 338 339 338 338 338 337 336 337 337 336 336 336 338 338 336 334 335 336 335 336 337 337 338 337 336 335 334 333 334 334 332 330 330 331 331 332 333 333 331 331 331 331 332 333 334 332 331 333 333 333 334 335 334 334 333 332
338 339 339 339 339 340 340 339 340 339 338 338 341 340 338 337 336 336 335 336 336 336 336 336 337 337 337 337 337 338 339 339 338 338 337 336 336 336 335 336 335 336 337 335 334 335 337 337 336 337 337 338 336 335 336 335 334 334 334 333 333 332 332 332 333 333 333 332 330 330 329 330 333 334 332 332 333 334 334 334 335 334 333 332 332
339 340 340 339 338 338 338 338 338 339 339 340 341 339 338 337 336 336 335 335 336 336 336 336 336 336 337 336 337 338 338 338 339 338 337 337 337 336 334 336 336 336 337 335 333 334 337 337 336 335 335 337 336 335 336 335 335 335 334 334 334 334 333 333 334 334 334 333 331 330 329 330 333 334 332 333 334 334 334 334 334 334 333 332 333
340 341 340 339 338 337 336 336 337 339 339 340 339 338 337 337 336 335 335 335 335 335 335 335 336 336 336 336 336 336 337 338 338 337 337 337 337 337 336 337 337 337 337 336 334 335 337 336 333 331 332 336 336 335 335 335 335 335 334 334 334 333 333 333 334 335 333 333 332 330 330 331 333 331 331 333 334 334 334 334 334 334 332 332 332
340 341 341 339 337 337 336 337 338 338 338 338 337 336 336 336 336 335 335 335 336 336 336 336 336 336 335 335 335 336 337 337 336 336 336 337 336 336 336 337 338 338 338 337 336 334 334 333 332 331 332 336 336 335 334 334 334 335 334 332 332 332 333 334 336 337 335 334 332 331 330 332 332 330 331 333 334 334 334 334 334 333 332 332 332
340 341 340 340 339 338 338 337 336 336 336 335 335 335 335 335 335 335 335 335 336 336 336 336 336 336 335 335 335 336 336 336 336 335 335 335 335 335 335 335 337 337 337 337 335 333 332 331 331 331 332 335 335 334 334 333 333 333 332 331 332 331 333 337 339 338 336 335 332 331 330 331 331 328 330 333 334 334 333 333 333 332 332 332 332
339 339 339 340 340 340 339 337 336 336 335 335 335 335 334 334 334 334 334 334 334 335 335 335 335 335 335 335 335 335 335 335 334 334 334 334 334 334 335 335 336 336 337 336 333 332 333 334 333 331 332 333 333 333 334 334 334 333 331 331 332 332 332 335 339 338 338 336 332 331 330 331 329 327 330 332 334 333 333 332 332 332 331 332 331
338 338 339 339 339 340 339 338 337 337 336 336 335 335 335 335 335 334 334 333 333 334 334 334 334 334 334 334 334 334 334 334 333 334 334 333 333 334 335 334 335 335 335 336 335 333 332 334 334 332 332 332 332 332 333 334 334 333 332 332 332 331 331 334 337 337 337 336 333 332 331 332 328 328 330 333 334 333 332 331 331 331 330 330 330
338 338 339 338 338 339 339 339 339 338 338 338 337 336 335 335 335 334 333 333 333 333 333 333 333 333 333 333 333 333 333 333 333 333 334 333 333 333 333 332 332 333 333 334 333 333 333 332 333 332 332 331 332 332 332 333 333 333 332 332 332 331 331 333 335 336 337 336 333 332 332 332 328 328 330 333 334 333 332 331 331 330 329 330 330
338 338 338 338 338 338 338 338 338 339 339 340 339 336 333 334 334 333 332 332 332 332 332 332 331 332 332 332 332 333 333 333 333 333 333 333 333 333 332 332 331 331 333 332 330 331 332 332 332 331 330 332 333 332 333 333 333 333 332 333 332 331 331 334 336 335 337 337 335 333 333 330 327 327 330 333 334 333 332 331 331 330 329 329 330
338 338 338 338 338 337 338 337 337 338 338 339 339 336 333 334 334 333 332 331 331 331 331 331 331 331 331 331 332 334 335 335 335 334 333 333 333 333 332 332 332 332 333 333 330 328 328 332 334 331 328 331 333 333 333 333 333 332 331 332 331 331 332 335 336 336 336 337 335 333 333 330 327 327 329 332 333 333 332 331 331 330 329 329 329
338 338 339 338 337 337 337 338 337 337 338 338 338 337 334 335 336 334 333 333 332 332 333 334 335 334 333 333 334 336 337 338 338 337 336 335 333 333 333 332 332 333 332 333 332 329 327 328 330 329 326 330 333 333 333 332 332 332 331 331 330 333 335 335 336 336 335 336 335 334 333 331 328 327 328 331 333 333 332 331 332 330 329 329 328
338 338 338 339 338 338 338 339 338 337 337 337 338 337 336 337 337 336 336 335 334 334 335 336 337 336 335 335 336 337 338 338 338 337 337 336 334 333 333 331 331 332 332 332 332 331 327 323 323 323 324 330 333 333 333 332 332 332 332 331 330 335 337 336 336 335 335 335 335 334 333 331 329 327 328 331 333 334 333 332 332 331 330 329 327
337 337 337 339 339 338 339 339 339 339 338 337 338 337 338 338 338 338 337 336 335 335 335 335 335 335 336 336 336 337 338 338 335 334 335 335 334 333 332 331 331 331 331 332 332 331 327 323 321 320 325 332 334 333 333 334 334 333 333 332 331 334 335 336 336 334 334 335 336 335 334 331 330 328 327 330 333 334 334 333 332 332 331 330 328
337 337 337 338 339 339 339 339 339 340 339 339 338 338 339 338 338 338 336 335 334 334 334 334 334 334 336 336 336 336 337 337 336 335 336 336 336 335 334 334 335 333 332 335 336 334 331 330 327 324 329 334 335 334 334 334 335 335 335 333 333 333 333 334 334 333 333 334 336 335 334 332 331 330 328 329 333 334 334 334 333 333 332 331 330
336 337 338 338 339 339 338 339 339 340 339 339 338 338 339 339 339 338 335 333 333 333 333 333 333 334 335 336 336 336 337 338 337 337 337 337 337 337 337 336 337 337 335 337 338 337 336 337 333 330 332 334 334 335 335 335 335 336 335 334 333 332 332 332 332 332 332 333 335 335 334 333 332 332 329 329 332 334 334 334 333 333 333 331 330
336 337 337 338 339 339 338 338 339 339 339 339 339 338 339 339 339 339 336 334 333 333 332 333 333 334 334 335 335 336 337 338 338 338 337 337 337 336 337 336 337 337 336 337 337 337 337 337 336 334 333 331 331 333 334 335 335 335 334 334 333 332 332 331 331 332 332 332 333 334 332 332 333 333 331 329 330 333 335 334 334 333 333 332 331
337 337 338 338 339 339 339 339 339 339 339 339 338 337 337 337 337 337 336 335 336 335 334 334 333 334 334 334 334 334 335 336 337 338 337 337 337 337 337 337 337 336 336 336 336 337 337 337 337 336 335 333 331 331 332 333 334 334 333 333 333 333 332 331 331 331 332 332 332 332 332 331 332 333 333 331 330 332 334 335 334 334 333 333 332
337 337 338 338 338 339 339 339 339 338 338 338 337 336 336 336 336 336 336 337 337 337 336 336 335 334 334 333 333 332 333 335 335 336 336 336 337 337 337 336 336 336 336 335 336 336 336 336 336 336 335 334 333 332 331 332 334 334 333 333 332 332 333 332 331 330 330 331 331 332 332 331 331 333 334 333 331 330 333 335 335 334 333 333 332
337 337 337 337 338 338 338 338 338 338 338 338 336 335 335 335 335 336 336 336 337 337 337 336 335 335 335 334 333 332 331 332 333 333 335 335 335 336 336 336 336 335 335 334 334 334 334 334 334 334 334 333 333 334 333 333 334 333 332 332 332 332 333 333 333 332 331 331 332 332 333 332 331 332 333 334 333 331 331 333 335 334 333 333 333
337 337 337 337 337 337 337 337 337 337 337 336 334 333 333 334 334 334 334 335 336 337 337 336 335 335 335 336 335 333 331 330 331 331 332 333 333 333 334 336 336 335 335 334 335 334 334 334 333 333 334 333 333 334 333 333 333 333 333 333 332 332 332 333 333 333 333 333 333 334 334 333 330 331 332 333 334 333 331 332 334 335 334 333 332
336 336 336 336 336 335 335 335 336 336 335 334 333 332 332 332 333 333 332 333 335 336 335 335 335 335 335 336 336 335 334 332 331 330 330 330 331 331 331 332 333 334 334 334 335 335 335 334 334 334 334 334 333 333 333 333 333 333 333 334 333 333 333 333 333 333 333 333 334 335 336 335 332 330 331 332 333 334 333 332 334 335 334 333 333
334 334 335 335 335 334 334 334 334 334 334 333 332 332 331 331 331 332 331 332 333 334 334 334 334 334 335 336 335 335 335 334 334 333 332 330 331 330 330 330 331 331 332 333 334 334 334 334 335 335 335 335 334 334 334 334 334 333 333 334 334 335 334 333 333 333 333 333 334 335 335 336 335 332 331 331 332 333 333 334 335 335 334 334 334
334 333 334 334 334 333 333 333 333 332 332 332 331 331 331 331 331 331 331 331 332 333 333 333 333 334 334 334 334 334 334 334 335 334 333 333 333 332 330 331 331 332 332 332 332 332 331 331 332 333 334 333 333 333 333 333 334 334 334 334 334 335 334 334 334 334 334 333 334 335 335 335 336 335 334 333 332 332 332 333 335 335 334 334 334
333 332 333 333 333 332 332 332 332 331 331 331 331 331 330 330 330 330 331 331 331 332 331 331 331 332 333 333 333 333 333 333 334 334 334 333 334 333 331 331 332 332 332 332 332 331 331 330 331 331 331 330 330 330 330 330 330 330 331 332 331 332 333 333 333 333 333 333 333 335 335 335 336 336 336 336 334 333 332 332 335 335 334 333 333
331 331 332 332 332 332 332 331 331 331 331 331 331 330 330 330 330 330 330 330 330 330 330 330 330 330 331 331 331 331 331 332 332 333 333 333 333 333 332 332 332 332 332 333 332 331 331 331 332 331 331 330 329 329 329 329 328 327 328 329 328 327 329 330 332 332 332 332 333 334 334 334 336 337 336 336 336 336 334 334 336 335 333 334 332
331 331 331 331 331 331 331 331 330 330 330 330 330 330 330 330 329 329 329 329 329 329 329 329 329 329 329 330 331 330 330 331 331 332 332 331 331 332 332 332 332 332 333 333 332 332 332 332 333 332 332 331 330 330 330 330 330 328 328 329 327 326 325 326 327 329 331 332 332 333 333 334 335 335 336 336 336 336 336 335 336 333 332 333 333
330 330 330 330 330 330 330 330 330 330 330 329 329 329 329 328 328 328 328 328 328 328 328 328 328 328 329 329 329 329 329 329 330 331 331 330 330 330 331 331 331 332 332 332 332 332 332 332 333 332 332 331 331 330 330 330 330 329 328 329 328 327 327 326 325 325 326 328 329 330 331 332 334 335 335 336 335 335 336 336 335 333 332 332 333
329 329 329 329 329 329 329 329 329 329 329 328 328 328 328 327 327 327 327 327 327 327 327 327 327 327 327 327 327 327 327 327 328 329 329 329 329 329 330 330 330 330 330 330 331 331 331 331 331 331 331 330 330 330 331 330 329 328 328 329 329 329 328 327 326 326 325 325 326 327 328 329 331 333 334 335 335 335 335 335 335 335 334 333 333
329 329 329 329 329 329 328 328 328 328 327 327 326 325 325 325 325 325 325 324 324 324 324 324 325 324 324 324 324 324 324 325 325 326 327 327 327 327 328 328 328 329 329 329 329 329 329 330 330 331 330 329 329 330 330 329 327 327 328 329 329 329 329 327 326 326 325 325 326 326 327 327 328 331 333 334 335 335 335 336 336 336 335 333 333
327 328 328 328 327 327 327 326 326 324 323 322 321 321 320 321 321 322 322 322 322 322 322 321 321 321 321 321 321 321 321 322 323 324 325 325 325 325 325 326 326 326 327 327 327 327 328 328 329 330 329 328 328 328 329 328 326 327 328 328 328 328 329 328 326 325 326 325 325 326 325 325 327 329 332 334 334 335 336 337 337 336 336 335 333
325 325 326 326 325 324 323 322 321 320 319 318 318 318 318 319 319 320 320 320 320 320 320 320 319 319 319 319 319 319 319 320 321 322 322 322 323 323 323 323 323 323 324 325 326 326 326 326 327 327 327 327 327 327 328 327 325 326 327 327 327 326 328 329 327 325 326 326 325 325 324 323 325 327 330 333 334 335 337 337 337 337 336 336 335
322 322 323 322 322 320 319 319 319 319 319 319 319 319 319 320 319 319 319 319 319 319 319 319 318 318 318 318 318 318 318 318 319 320 320 320 321 321 321 321 321 321 321 322 323 325 325 325 325 325 324 324 325 326 326 326 324 325 326 325 326 325 325 327 329 327 326 326 325 325 324 324 325 326 328 330 331 334 336 336 337 336 336 336 336
320 320 320 320 319 318 319 319 318 318 318 318 318 319 320 321 320 320 319 319 319 319 318 318 318 317 317 316 317 317 317 317 317 318 318 319 319 319 319 319 319 319 319 319 320 321 323 324 324 324 323 322 322 324 325 325 324 324 324 323 324 324 323 325 328 327 325 326 326 325 324 324 324 325 326 327 328 331 333 334 334 334 334 334 335
319 319 319 318 318 318 319 318 318 317 317 318 318 319 320 320 320 319 319 318 318 318 317 317 316 316 317 316 316 316 316 316 316 316 317 317 317 317 318 318 318 317 317 317 317 318 319 321 322 322 322 321 320 322 323 323 324 324 323 323 323 322 323 324 325 324 323 325 325 325 325 325 324 324 325 325 325 327 329 331 332 332 332 333 333
319 319 319 319 318 319 318 317 317 317 317 318 319 319 319 319 319 318 318 317 316 316 316 316 316 316 316 315 315 315 315 315 315 315 315 316 316 316 316 317 317 317 316 316 316 316 317 318 319 320 320 320 319 319 320 321 322 323 323 323 323 322 322 322 323 323 322 323 323 323 324 325 325 325 324 324 324 324 326 329 330 331 332 333 332
319 319 320 320 319 318 318 317 317 317 317 318 318 318 318 317 317 317 317 316 316 316 315 315 315 316 316 315 314 314 314 314 314 314 314 314 314 315 315 315 316 316 316 316 315 315 315 316 318 318 318 318 318 318 318 319 319 321 321 321 322 322 322 322 321 321 321 321 321 322 323 323 324 326 325 325 325 324 324 326 326 327 330 332 333
319 319 319 319 318 318 318 318 317 316 316 318 318 317 317 317 316 316 315 315 315 315 314 314 314 314 314 314 314 313 313 313 313 313 313 313 313 313 314 314 314 314 314 314 315 315 314 315 316 317 317 317 317 318 318 318 318 318 318 318 319 320 320 321 321 320 320 320 321 321 321 321 323 324 324 325 327 326 325 324 323 323 324 326 329
319 319 319 318 318 318 318 318 317 316 316 317 316 316 317 317 316 315 314 314 314 314 313 313 313 313 313 313 313 313 313 312 312 312 312 312 312 312 313 313 313 313 313 313 313 314 314 315 315 316 316 316 316 317 317 317 317 317 317 317 317 317 317 318 318 320 320 320 320 320 320 320 321 322 322 323 326 326 326 325 323 323 322 321 324
320 320 319 318 318 318 318 318 318 317 317 317 316 316 317 316 315 315 314 314 314 313 313 313 313 313 313 313 313 313 313 312 312 312 312 312 312 312 312 313 312 312 312 312 312 313 314 314 314 315 315 315 315 316 316 316 316 316 317 316 317 316 316 316 317 318 319 319 319 318 318 319 319 320 320 321 322 323 325 325 324 324 323 322 323
321 320 319 318 318 318 318 318 318 317 317 316 315 315 315 315 315 314 313 313 314 313 313 313 314 313 313 313 313 313 312 312 312 312 312 312 312 312 312 312 312 312 312 312 312 313 313 313 313 314 314 314 314 315 315 315 315 315 315 315 315 316 316 317 316 317 318 319 318 317 318 318 318 319 320 320 320 320 321 322 323 324 324 323 323
321 320 320 319 318 319 319 319 318 318 316 315 314 314 314 314 315 314 314 314 314 313 313 313 313 313 313 313 313 313 312 312 312 312 312 312 312 312 312 311 311 311 311 311 312 312 313 312 312 313 313 314 314 314 314 315 314 314 314 314 314 314 316 316 316 316 318 318 318 317 318 318 317 318 318 318 319 319 320 320 320 322 323 323 323
Wind_Speed
7 7 6 4 8 9 7 7 7 7 8 7 8 10 10 9 9 10 10 10 9 8 8 7 8 8 8 8 8 8 7 6 5 5 6 7 8 8 5 5 6 5 4 5 6 7 6 6 6 6 6 7 6 5 4 5 5 6 6 5 6 6 6 6 5 4 4 5 6 5 6 5 4 3 3 3 3 2 4 3 4 3 4 5 4
7 8 8 7 8 8 8 9 8 7 7 6 8 9 9 9 8 9 10 10 9 9 8 7 7 6 7 7 7 7 7 6 5 6 7 9 8 6 5 5 6 5 4 7 7 6 6 5 7 7 7 7 5 4 5 5 5 5 6 6 6 7 7 6 5 3 4 5 6 6 5 5 4 3 3 3 3 3 3 4 5 2 4 7 6
8 8 8 7 8 9 9 10 10 9 7 6 7 8 9 9 8 9 10 10 9 9 8 8 7 7 7 6 6 6 6 6 6 7 9 8 7 7 5 5 6 6 6 7 6 6 6 5 6 6 6 6 6 6 7 7 7 7 7 7 7 8 7 6 5 5 5 4 4 5 4 4 5 5 4 3 4 3 2 4 3 2 6 9 7
9 9 8 7 10 12 11 11 11 10 8 6 7 8 8 8 8 8 9 9 9 9 8 8 8 8 8 8 7 7 7 7 6 7 7 6 7 7 7 6 7 7 7 7 6 6 7 6 6 6 7 7 8 9 9 9 9 9 9 9 9 7 7 6 5 5 6 4 2 4 4 4 5 5 5 4 4 2 1 4 3 4 8 8 7
10 10 10 10 12 12 12 12 11 10 8 7 7 7 7 7 7 8 8 9 8 8 8 8 8 8 9 9 9 8 7 7 6 5 5 6 7 7 7 7 6 6 6 7 6 7 7 5 6 8 8 8 8 9 10 10 9 10 10 10 8 5 5 5 5 5 5 3 3 4 3 4 6 5 5 5 4 3 2 4 4 5 8 7 7
12 12 11 12 14 14 13 11 10 10 9 7 7 7 7 7 6 7 8 8 8 7 7 7 8 8 8 8 8 8 7 7 6 4 4 6 6 6 6 6 5 5 6 8 7 8 8 6 7 9 9 8 8 8 10 10 10 10 9 9 6 4 4 3 4 4 4 3 2 2 2 4 5 6 6 5 3 3 3 3 4 7 8 6 6
14 15 13 15 16 15 15 12 10 8 8 7 7 7 7 6 6 6 7 7 6 6 5 6 6 7 7 7 7 7 7 7 6 5 4 5 5 4 4 5 5 5 7 9 8 8 9 7 8 9 9 8 7 8 10 10 10 10 9 7 5 4 4 4 4 3 4 4 1 2 2 3 5 7 7 5 3 3 3 4 6 7 7 6 5
16 17 14 16 17 15 15 14 11 9 7 6 7 8 7 7 6 6 6 6 5 5 5 5 5 6 5 5 6 6 6 6 6 5 5 6 4 2 2 2 3 5 7 9 7 8 9 7 8 9 8 8 7 8 10 11 11 10 9 7 6 5 5 5 6 5 4 2 1 2 2 2 5 6 6 5 4 3 3 4 6 7 6 6 5
16 16 15 15 16 15 15 13 12 11 8 6 8 8 8 8 7 7 6 6 5 4 4 4 5 5 4 5 5 5 5 5 5 4 4 5 4 2 1 1 1 3 6 8 7 8 9 6 8 8 8 8 7 8 9 11 11 10 8 7 7 6 5 5 5 6 3 1 1 1 1 2 3 5 6 5 4 4 4 4 5 6 5 5 5
16 16 16 14 13 15 14 13 11 10 9 7 7 7 8 8 8 7 7 6 5 5 4 4 4 4 5 5 4 4 4 4 4 4 4 4 3 2 0 1 1 1 5 7 7 8 8 6 7 6 6 7 7 7 7 9 9 9 8 7 7 6 5 3 4 4 2 1 2 1 2 3 3 4 5 4 5 5 5 5 6 6 5 6 6
16 15 15 14 13 14 13 12 11 9 8 7 6 7 9 9 9 8 7 7 6 6 6 5 5 6 6 6 6 5 5 5 5 4 4 4 3 2 2 1 1 1 4 7 7 7 7 6 7 6 6 6 6 6 7 7 8 9 8 7 6 4 3 2 2 1 1 2 2 2 3 3 3 4 4 3 5 6 6 6 6 6 6 6 6
14 13 13 14 12 13 13 11 10 8 8 7 6 8 10 9 9 9 8 7 7 7 6 6 7 7 7 8 7 6 7 7 6 5 5 5 4 4 5 3 1 0 4 7 7 6 6 6 6 6 5 6 6 6 7 7 7 8 7 6 4 3 3 2 1 1 0 1 2 2 3 3 3 4 4 5 5 5 7 7 6 6 5 5 5
12 12 12 12 10 11 12 10 9 7 7 8 8 10 10 10 10 9 8 8 7 7 7 7 7 6 6 6 6 7 7 7 6 5 5 6 6 7 7 5 3 2 4 7 6 5 5 4 4 5 5 5 6 6 6 5 6 6 6 4 3 2 4 4 4 3 1 1 1 2 3 3 3 3 4 6 6 6 7 7 6 6 5 5 5
11 12 11 11 11 10 10 9 9 8 8 9 9 10 10 10 10 9 8 8 7 7 7 7 6 6 5 6 6 7 8 7 6 5 5 6 6 7 7 6 6 4 2 4 4 3 2 2 3 4 5 5 5 5 5 5 4 5 4 3 2 2 4 5 6 5 3 2 2 2 2 4 4 3 4 6 6 6 6 6 6 6 5 5 5
12 11 11 10 10 10 9 9 9 9 9 9 10 10 10 10 9 8 7 7 7 6 7 6 6 6 6 7 8 8 8 8 7 6 6 7 6 6 6 5 5 4 3 3 3 3 1 1 3 3 5 5 4 4 4 3 3 4 3 2 2 3 5 5 6 6 4 3 2 3 3 5 5 4 5 6 7 7 6 6 6 6 6 5 5
12 12 12 10 9 9 8 8 9 9 9 9 10 10 10 9 9 8 7 6 6 6 6 7 7 7 7 7 8 8 8 8 7 7 8 8 6 7 7 5 4 3 2 2 2 3 2 1 2 2 3 3 3 3 3 3 3 3 3 3 3 4 5 5 6 6 5 4 3 3 3 4 5 5 5 6 7 7 6 6 5 6 6 5 5
13 13 12 10 9 8 7 8 9 10 10 10 10 10 9 9 8 8 7 6 6 6 6 7 6 6 6 5 6 6 7 7 7 8 8 7 7 8 8 6 6 6 3 1 2 2 2 2 1 1 2 2 3 4 4 4 3 3 3 3 4 4 5 5 5 6 4 4 4 4 4 4 5 5 6 6 7 7 6 7 6 7 6 6 5
12 12 11 10 10 8 8 9 9 9 9 9 9 10 9 9 9 8 8 7 7 6 6 7 6 5 5 5 5 6 6 6 6 7 7 6 7 7 7 6 7 6 5 5 4 2 1 2 2 1 2 3 4 5 5 5 5 4 4 4 4 4 5 4 4 5 4 5 5 4 4 5 5 6 7 7 8 8 7 7 7 8 8 7 5
12 12 11 11 10 9 8 9 9 9 8 8 8 9 9 9 9 9 8 8 7 7 7 7 7 6 5 5 5 5 5 6 6 6 6 6 6 6 6 5 4 5 5 4 5 4 3 2 2 2 3 4 5 6 6 6 5 5 5 5 6 6 5 3 4 5 3 5 5 4 5 6 6 6 8 9 9 9 8 8 8 8 8 8 7
11 12 11 11 10 9 9 8 9 9 8 8 8 8 10 10 9 9 9 8 8 8 8 8 7 7 6 5 6 6 4 5 6 6 6 6 5 5 4 4 3 3 3 2 3 2 2 4 3 2 4 6 6 6 6 6 6 5 5 5 6 5 5 5 6 5 3 4 4 5 6 7 6 7 8 8 9 9 9 9 10 9 9 9 9
11 11 11 11 10 10 10 9 9 9 9 8 8 8 9 9 8 8 9 9 9 8 8 8 7 6 6 6 6 5 4 5 6 6 6 6 5 4 4 4 3 3 3 3 3 3 2 2 4 4 6 7 6 6 6 6 6 5 5 5 5 6 5 7 6 5 4 4 4 5 7 8 7 7 8 9 9 10 9 9 11 10 10 10 10
10 10 11 11 10 10 10 9 9 9 9 7 7 6 7 7 7 7 8 8 8 8 8 8 7 6 6 6 5 5 5 6 6 5 4 4 3 3 3 4 4 3 2 2 2 3 2 0 2 4 6 6 5 6 6 6 5 5 5 5 6 7 7 7 6 6 5 5 4 6 8 9 9 8 9 10 10 10 10 10 11 11 11 12 12
10 10 10 10 9 9 10 9 9 8 7 7 6 5 5 5 6 6 7 8 8 8 8 8 7 7 7 7 6 6 6 6 6 6 5 4 3 3 3 4 5 4 3 3 3 4 3 3 1 3 3 3 4 5 5 5 5 6 6 6 7 7 7 7 7 7 7 6 6 7 9 9 10 10 10 11 11 11 11 11 11 12 11 12 12
9 9 9 10 9 8 8 8 8 7 6 6 5 5 4 4 5 6 6 7 7 8 8 8 8 8 8 8 7 7 6 5 6 6 5 4 4 4 5 5 5 5 5 4 4 5 4 4 3 1 2 2 4 4 4 5 5 6 6 7 8 7 8 9 9 9 8 7 7 8 10 10 11 12 12 12 12 12 12 12 12 13 13 13 12
8 8 9 9 8 8 7 7 7 6 6 5 5 5 4 4 5 5 6 7 7 8 8 8 9 8 8 8 8 8 6 5 6 5 5 5 4 4 4 4 3 4 5 4 4 5 4 3 3 2 2 3 4 4 5 6 6 6 6 6 7 8 8 9 9 9 9 8 8 10 11 10 11 12 13 13 13 13 13 14 13 14 13 13 13
7 8 8 8 8 8 7 6 6 6 6 5 5 5 5 5 5 5 6 7 7 8 8 8 9 9 9 9 8 8 7 6 6 6 6 6 5 5 5 4 4 4 5 4 4 5 5 4 4 4 4 5 5 6 6 7 7 7 7 7 7 7 8 9 10 10 10 10 9 11 12 11 12 12 14 14 14 14 14 15 15 15 15 14 14
7 7 7 8 8 8 7 6 6 6 6 6 6 6 6 7 7 7 7 7 7 8 8 8 8 9 9 9 8 8 8 8 8 8 7 7 7 7 6 6 5 5 5 5 5 5 5 5 5 5 6 6 6 6 7 7 7 8 8 8 8 8 8 9 9 10 10 10 10 12 12 12 13 13 14 15 16 15 15 16 16 16 16 15 15
8 7 7 8 9 8 7 7 6 6 6 7 7 8 8 8 7 8 8 8 7 7 8 8 8 9 9 9 8 8 8 8 9 9 8 8 8 7 7 6 6 6 6 5 6 5 5 5 5 5 6 6 6 6 7 7 7 9 9 9 9 9 9 9 10 10 11 11 10 11 12 13 14 14 15 15 17 17 17 17 17 17 17 17 16
7 7 7 8 8 8 7 7 7 7 7 7 8 9 9 9 8 8 8 8 7 7 7 7 7 8 9 9 9 9 9 9 9 9 9 9 9 8 7 7 6 5 5 5 5 5 5 5 5 5 6 7 7 6 6 8 8 9 9 10 10 10 9 9 10 10 11 11 11 11 12 13 14 14 15 16 17 19 19 19 18 18 18 17 18
6 5 7 7 7 7 7 8 7 7 7 8 8 9 9 9 9 8 8 8 7 7 6 7 7 8 9 10 10 10 10 9 10 9 9 10 9 9 9 7 7 6 5 5 5 4 5 4 5 5 6 7 7 6 7 8 8 8 9 10 11 10 10 10 10 11 11 11 11 11 12 14 14 14 15 16 17 19 21 21 20 19 18 18 19
5 6 7 7 7 7 7 8 8 7 7 8 8 8 9 9 9 9 9 8 7 7 7 7 8 8 9 9 10 10 10 10 10 10 9 9 9 10 10 9 8 8 7 6 5 5 5 5 5 5 6 6 7 6 7 8 8 9 8 9 11 11 11 11 11 12 12 12 12 11 12 13 14 14 14 15 17 18 21 22 21 20 18 19 21
6 7 7 6 7 7 8 8 8 8 8 8 8 8 8 9 9 9 9 8 8 8 8 9 9 9 10 10 10 10 10 10 11 11 9 9 9 9 9 9 9 8 8 7 7 6 6 6 5 5 6 6 7 6 6 7 8 8 8 9 10 10 11 12 12 12 12 12 12 12 12 12 14 14 14 15 16 17 19 21 22 21 19 20 23
6 7 7 7 7 7 8 9 9 9 9 9 9 9 9 9 10 10 9 9 9 9 10 10 9 10 10 11 10 10 10 10 10 10 9 9 9 9 9 8 9 8 7 8 8 7 7 7 7 6 7 7 7 7 7 7 7 8 8 8 9 9 10 11 11 12 12 12 12 12 12 12 13 14 15 15 16 17 18 20 22 22 21 22 23
6 7 8 8 7 7 8 9 10 10 10 10 10 10 10 10 10 10 10 9 9 10 10 10 10 10 10 11 11 11 11 10 10 10 10 9 9 9 9 8 9 8 7 8 8 7 8 8 8 8 8 8 8 9 9 9 9 10 10 10 10 10 10 11 11 11 12 12 12 12 12 12 12 13 14 15 17 18 18 18 20 21 23 24 23
8 8 9 9 9 9 9 9 10 10 10 10 11 10 10 11 11 11 10 9 10 10 10 10 11 10 11 12 12 12 12 11 11 10 9 9 8 8 9 9 9 8 7 8 8 7 8 8 8 9 9 9 9 9 9 9 9 10 11 11 12 12 13 12 12 12 12 12 12 12 12 13 13 13 13 14 16 17 18 17 18 19 21 24 25
8 9 9 10 10 10 10 10 10 11 11 11 11 11 12 12 12 12 11 11 11 11 11 11 11 11 11 12 13 13 12 12 11 10 9 9 9 8 9 9 9 8 8 8 7 7 8 8 8 8 10 10 10 10 9 9 9 10 10 11 11 12 13 13 13 13 12 11 12 12 12 12 13 13 13 14 14 16 17 15 15 17 20 23 25
8 9 9 9 10 10 10 10 11 12 12 12 12 12 13 13 13 13 13 12 12 12 12 12 12 13 13 13 13 13 13 13 12 10 9 9 9 8 8 9 8 8 8 8 7 8 8 8 8 8 9 10 10 10 10 10 10 11 11 10 10 11 11 12 13 14 14 13 12 12 12 12 12 13 13 14 14 15 16 14 14 17 18 21 23
8 8 8 9 9 9 10 10 11 12 12 12 12 12 12 12 12 12 12 12 12 12 11 12 13 13 13 13 13 13 13 13 12 11 9 9 9 9 9 9 9 8 8 8 7 8 8 9 9 9 9 10 10 11 11 12 13 13 12 11 11 11 11 11 11 12 13 13 12 12 12 11 12 12 13 13 13 14 14 13 14 15 16 18 20
8 8 9 9 9 10 10 10 11 11 11 10 10 10 10 10 10 10 11 11 11 11 11 12 12 13 13 13 13 13 12 12 12 11 10 10 9 10 10 10 9 9 9 9 8 9 9 9 9 9 10 10 9 10 12 13 15 14 13 13 12 12 11 10 10 11 11 11 11 11 11 10 10 11 12 12 12 13 13 12 12 12 13 16 19
8 9 9 9 9 10 10 10 10 9 9 9 9 8 8 9 9 9 9 10 10 11 12 12 12 12 12 12 12 12 12 12 11 11 11 11 10 10 11 11 10 10 10 10 10 11 10 10 9 9 10 10 9 10 12 14 15 14 14 14 13 12 11 10 10 10 9 9 9 10 11 11 10 10 10 10 11 11 11 11 11 10 11 14 17
8 9 9 9 9 10 11 11 10 10 10 10 9 8 8 8 8 8 9 9 9 10 11 11 11 12 12 11 11 11 10 10 10 11 11 10 10 10 11 11 11 10 11 11 11 12 12 12 11 10 10 11 10 11 13 15 14 13 13 14 14 13 10 9 9 9 7 9 11 11 12 11 10 11 10 9 10 10 9 9 9 10 10 11 13
8 9 9 10 10 10 11 11 10 10 10 10 9 8 8 8 8 8 8 9 9 9 10 10 10 11 11 11 10 10 9 9 9 9 10 10 10 10 10 11 11 10 10 11 11 12 12 13 12 12 11 11 10 11 14 14 13 13 13 12 12 12 11 9 7 7 9 12 12 11 10 10 10 11 10 10 9 9 9 8 8 9 10 11 12
8 9 9 10 10 10 10 10 10 11 11 10 10 9 9 8 9 9 8 9 9 9 9 9 9 10 11 11 11 10 9 9 9 9 9 10 10 10 9 10 10 10 10 10 11 12 12 12 12 12 12 12 10 11 13 13 13 14 13 9 8 9 9 7 7 12 15 13 10 10 10 11 11 10 10 10 9 8 8 8 8 8 9 10 11
8 9 9 8 9 9 9 10 11 11 11 11 10 9 8 9 9 9 9 9 9 8 8 9 9 9 10 11 11 11 11 11 11 10 10 11 11 10 10 9 10 10 10 10 11 11 11 11 11 11 12 12 11 11 11 12 13 12 10 8 8 8 6 7 13 16 15 11 11 12 12 12 12 11 11 11 9 9 9 8 8 9 9 9 10
7 8 7 7 8 9 9 10 11 12 12 11 11 10 9 9 9 8 8 9 9 10 9 9 9 9 10 11 11 11 11 11 11 11 11 11 11 10 10 9 9 10 10 10 10 11 11 11 11 11 11 11 12 12 10 10 11 10 8 7 7 6 6 11 15 13 12 13 14 14 13 13 13 13 12 12 11 10 9 8 9 10 10 10 10
6 7 6 6 7 8 9 10 11 11 12 12 12 12 12 11 10 10 10 9 10 10 11 11 10 10 10 10 10 11 11 11 10 11 11 10 11 11 10 10 9 9 10 10 10 11 11 11 11 11 11 10 11 12 11 10 10 8 8 8 7 7 9 12 11 9 13 16 14 14 14 14 15 14 13 13 13 13 10 9 10 11 11 11 11
5 5 5 5 6 7 8 9 10 11 11 11 12 12 12 12 12 11 11 11 10 10 10 10 10 10 10 9 10 10 10 10 10 10 10 11 11 10 10 10 10 10 9 9 10 11 11 11 11 11 11 10 11 11 11 11 10 9 9 10 11 11 12 12 9 8 11 13 14 15 15 14 14 14 15 15 13 13 13 13 13 12 13 13 13
5 4 4 5 5 6 7 8 9 10 10 10 11 11 11 12 12 11 11 11 10 9 9 10 9 9 10 9 9 9 9 10 10 10 10 11 11 10 10 9 10 10 10 10 10 11 11 11 11 10 10 10 10 11 11 11 11 11 11 12 12 13 13 13 12 11 9 10 13 15 15 16 16 15 15 15 14 13 13 13 13 14 14 16 15
4 4 4 4 5 5 5 6 7 8 9 9 10 10 10 11 11 11 11 10 9 9 9 9 9 9 9 9 9 8 9 9 10 10 10 10 10 10 10 9 10 11 10 10 10 10 10 11 11 10 10 10 10 10 11 11 11 12 12 13 13 13 14 13 13 13 11 10 10 11 14 17 17 16 16 16 16 16 14 13 14 16 15 15 15
3 3 4 4 4 3 3 4 5 6 7 8 9 9 9 10 10 11 11 10 9 8 8 8 8 8 9 9 9 9 8 9 9 9 9 10 10 9 10 10 10 11 11 11 10 10 10 10 11 10 10 10 10 10 10 11 11 12 12 13 13 13 13 12 12 13 12 11 11 11 14 16 15 17 18 17 17 17 17 16 15 15 15 14 15
4 3 3 3 3 2 2 2 3 4 6 7 7 8 8 9 9 9 10 10 9 9 9 9 9 9 9 9 9 8 8 8 9 8 9 9 9 9 10 10 10 11 11 11 11 11 10 10 10 10 10 10 10 10 10 10 11 12 12 12 12 12 12 11 12 14 12 11 11 10 14 17 17 19 19 18 19 19 19 18 16 14 14 14 14
Wind_Direction
69 64 74 117 114 102 85 80 87 80 79 88 96 96 92 89 89 94 95 91 87 84 82 82 84 86 90 94 100 103 106 105 100 97 94 88 85 90 107 127 128 142 144 115 90 87 89 95 100 98 102 110 117 120 126 126 124 127 130 129 121 110 103 99 102 105 110 126 129 125 117 112 109 115 120 132 146 145 167 186 195 165 136 149 132
77 81 92 111 110 99 93 99 105 98 87 92 97 94 94 94 95 95 94 91 87 83 80 79 81 84 87 88 93 98 99 99 93 90 86 82 89 115 154 157 135 127 106 87 85 96 94 95 102 105 110 116 123 131 137 132 132 138 139 140 141 133 122 114 120 120 117 125 125 122 115 110 108 113 125 133 140 157 205 209 200 218 145 142 128
81 95 103 114 112 101 105 113 111 105 100 104 100 97 102 103 105 101 98 96 91 86 82 78 77 79 80 80 82 83 83 84 82 80 86 96 117 133 133 125 117 113 112 109 110 106 96 93 93 91 101 111 118 118 119 116 115 117 118 121 122 122 121 127 139 135 134 143 136 134 119 99 104 108 120 128 133 160 221 199 180 86 135 135 126
78 88 94 111 120 112 112 115 112 109 112 114 102 101 106 110 110 104 102 101 97 93 87 81 77 77 78 78 78 76 76 76 82 87 97 117 124 123 123 118 113 119 127 123 114 100 92 84 81 89 102 110 113 113 113 111 112 112 113 111 107 116 130 145 160 153 153 182 170 148 138 106 104 109 124 125 126 149 158 164 150 114 141 134 132
72 78 85 102 114 113 113 116 121 119 119 115 104 105 112 115 113 109 108 105 101 99 95 90 84 80 77 76 78 78 80 81 88 97 107 116 113 117 122 121 120 125 125 116 114 109 100 86 91 106 111 113 112 114 117 118 118 119 117 111 109 129 142 154 169 169 167 181 166 159 152 114 110 117 132 129 127 132 133 153 156 144 144 133 137
73 83 89 99 106 110 114 117 120 119 117 114 110 116 125 124 118 114 109 104 100 98 96 93 89 85 81 77 76 74 78 81 89 93 99 105 106 113 110 112 124 125 117 116 122 118 110 102 110 117 119 123 121 121 123 126 128 127 123 117 122 134 134 131 146 167 153 128 137 168 146 117 117 118 127 131 140 133 128 138 135 145 144 133 138
79 88 92 97 106 112 116 115 110 107 109 114 123 128 131 126 119 111 101 98 95 94 94 92 88 84 85 82 79 74 73 76 83 87 88 88 89 101 102 111 121 117 117 122 130 122 115 116 124 125 127 133 133 131 129 132 134 130 126 128 132 115 107 97 101 122 120 119 156 171 147 128 115 118 129 139 154 138 127 131 134 143 143 131 133
86 90 91 100 113 118 117 116 115 111 110 122 133 133 130 123 112 102 93 91 88 87 85 83 80 74 75 75 76 75 73 69 68 67 73 79 74 83 100 122 119 109 117 127 133 123 121 131 131 130 142 144 138 142 141 140 140 135 133 137 136 114 102 92 92 100 92 101 202 156 153 134 116 126 141 154 160 159 151 142 146 146 145 137 135
91 97 101 105 115 119 118 120 123 122 126 137 137 135 128 118 106 95 88 87 81 77 70 68 67 61 55 55 63 67 71 68 61 48 51 71 67 65 102 197 138 103 118 132 136 127 126 135 131 141 162 152 138 149 154 153 151 148 148 145 140 130 118 102 92 88 65 54 145 156 169 139 118 134 148 163 168 174 176 154 149 148 153 145 130
92 100 104 103 108 114 116 120 124 128 135 140 134 129 116 105 96 87 80 78 71 65 59 57 55 51 50 50 56 57 63 65 59 38 21 45 51 37 57 205 195 118 120 134 140 131 124 133 135 142 158 149 146 149 156 167 166 160 159 155 149 147 142 123 89 71 33 58 109 129 176 157 111 133 151 166 174 177 181 167 155 153 154 142 137
97 100 100 100 106 111 113 115 117 122 127 127 121 111 101 94 87 81 77 75 69 64 60 55 53 51 52 52 55 55 54 53 49 34 14 18 21 359 350 331 248 201 137 144 149 139 128 139 140 137 145 149 157 147 145 167 175 175 172 169 170 172 174 144 91 54 20 44 81 106 164 164 118 132 144 148 169 175 176 167 154 150 144 140 144
101 102 98 98 104 109 109 109 107 108 112 116 111 100 95 90 84 80 76 74 69 65 61 56 53 50 50 51 52 51 45 44 41 29 13 5 4 358 357 0 320 136 147 153 153 145 137 147 150 154 162 156 158 148 142 153 167 179 183 185 192 211 230 231 253 263 98 52 75 116 153 155 145 142 127 132 149 159 163 157 149 146 143 143 145
95 95 95 94 96 100 103 105 105 105 106 106 98 90 88 85 82 79 74 71 67 64 61 57 53 51 52 55 56 57 51 43 40 32 18 10 10 8 4 359 0 56 146 157 155 146 141 152 166 176 181 166 156 146 136 137 149 165 170 179 197 231 255 262 264 265 240 168 107 141 149 138 167 162 128 136 139 144 152 151 149 147 147 151 154
83 84 88 90 91 93 98 106 110 108 101 94 87 84 83 80 78 75 71 69 67 65 65 60 56 52 51 54 54 59 56 43 41 39 27 24 22 20 14 3 1 11 98 142 141 132 136 151 163 176 178 167 154 148 136 129 138 155 157 167 215 256 272 276 270 265 252 220 166 176 149 138 191 196 147 146 147 155 158 159 157 153 158 159 163
77 79 83 85 90 91 94 99 100 97 90 85 82 81 80 77 75 72 69 65 62 61 62 58 49 45 42 45 47 51 50 40 37 35 35 34 31 32 23 15 13 10 42 72 66 65 81 128 141 158 170 165 157 162 154 139 141 154 169 193 237 274 281 275 271 266 249 233 191 194 163 157 217 224 169 160 164 173 172 176 172 162 174 175 169
74 75 75 76 82 83 85 88 86 84 80 77 75 75 76 74 71 67 62 58 57 52 51 50 45 44 43 44 48 50 45 41 35 28 35 36 34 39 31 29 28 15 52 92 83 85 89 88 109 138 164 173 174 181 186 180 169 167 180 208 241 272 282 273 272 270 246 227 196 194 174 174 229 230 191 177 176 185 182 191 197 176 184 194 192
71 71 69 68 71 72 74 76 74 77 75 70 69 72 73 71 69 64 59 57 57 53 48 49 48 44 42 41 48 52 43 39 36 29 31 32 37 44 40 42 42 31 26 68 94 118 124 108 86 114 174 194 203 203 206 206 200 196 192 222 250 269 281 283 280 273 243 219 198 191 176 182 230 222 199 193 185 193 191 198 206 192 190 204 222
68 68 69 67 68 68 65 66 69 75 74 68 67 71 74 72 71 67 61 59 59 57 51 51 48 39 40 38 41 47 38 30 33 31 30 30 36 44 43 47 55 56 41 22 20 13 83 152 182 204 221 216 223 222 218 219 219 217 208 225 247 262 275 286 286 276 240 209 204 188 183 203 232 223 205 200 191 194 198 201 199 192 191 198 215
65 64 66 64 65 66 65 66 68 74 75 74 70 69 72 70 69 68 64 61 59 58 54 52 47 41 39 44 52 49 36 28 28 26 25 30 36 36 37 44 54 66 62 33 18 3 340 293 221 207 242 236 238 238 228 226 228 224 213 222 244 260 275 279 274 274 234 200 211 194 199 220 226 215 208 200 191 194 202 205 198 192 195 197 204
64 61 61 59 59 62 64 63 61 65 67 69 67 62 64 64 63 64 64 61 58 60 60 55 48 41 44 55 64 58 45 39 35 30 25 27 37 37 34 41 47 55 70 54 45 53 346 297 286 264 240 236 247 250 240 236 234 232 229 232 247 260 279 276 265 269 235 200 209 205 217 231 222 210 211 202 192 199 208 206 203 197 200 205 205
64 60 56 54 56 57 59 61 58 60 63 62 60 56 59 62 63 63 63 59 55 59 60 56 49 40 46 55 60 54 47 44 38 40 36 26 28 38 38 32 33 34 38 42 45 76 109 246 269 258 227 229 247 252 248 248 242 238 244 247 255 259 268 267 263 268 252 220 208 216 235 239 226 217 213 207 198 207 215 209 211 205 198 204 205
60 58 52 51 54 56 56 59 61 61 63 64 62 60 62 68 73 70 66 62 58 58 57 57 55 48 49 53 53 45 41 43 38 38 41 37 30 36 40 26 34 34 20 46 52 58 76 105 247 224 216 229 250 259 256 255 253 250 250 254 259 259 262 262 262 267 260 251 228 229 249 242 229 225 218 214 206 210 219 215 216 211 200 206 209
56 56 52 52 55 58 55 55 61 63 62 62 65 68 70 76 79 76 70 65 61 59 58 53 50 47 48 52 53 49 46 42 36 37 33 40 38 26 31 27 35 31 14 34 34 33 42 34 24 206 215 237 258 273 267 256 261 262 259 264 269 266 268 269 265 267 261 257 245 244 258 247 235 232 223 220 211 211 221 221 219 215 208 209 212
61 59 56 55 55 60 57 53 57 60 63 63 64 65 67 73 72 74 70 65 62 59 57 51 46 44 45 49 52 52 55 47 41 45 42 44 37 16 20 26 23 14 16 16 0 4 16 17 9 324 226 242 253 269 267 260 265 265 265 272 277 276 274 273 270 270 264 256 250 251 259 253 244 238 229 225 218 216 221 224 222 219 215 213 216
73 71 65 62 59 62 62 56 56 57 62 62 62 61 56 58 60 65 65 63 60 57 55 49 45 42 42 45 45 49 54 53 50 52 52 55 57 40 31 36 24 4 12 7 347 350 347 343 342 318 267 261 256 258 262 263 264 263 266 272 277 279 277 276 274 275 272 266 260 258 260 256 250 243 236 230 226 222 220 224 223 221 220 218 220
77 77 76 73 67 66 65 59 56 55 59 57 54 52 45 47 51 56 59 60 57 55 55 49 44 40 41 40 37 42 47 48 48 50 52 53 57 57 50 42 37 16 13 8 2 356 345 338 327 318 303 292 275 263 259 257 262 263 265 267 271 275 275 277 277 278 278 275 272 268 268 261 251 246 240 234 231 228 224 225 222 221 224 223 223
72 72 75 76 69 64 60 56 53 47 49 47 46 48 46 47 49 50 53 54 50 51 51 47 46 42 39 37 32 34 40 44 43 45 49 52 52 51 47 40 38 35 30 20 12 3 352 346 333 326 314 306 294 278 267 260 265 267 268 268 268 269 270 274 276 278 280 278 276 271 274 271 257 248 243 237 233 232 229 229 225 223 224 223 223
72 68 64 63 59 56 53 51 47 37 37 40 45 48 46 46 48 49 50 47 46 47 46 43 45 44 40 35 32 29 32 36 37 40 42 45 47 46 45 40 38 39 33 23 12 4 357 349 339 329 316 308 298 290 286 280 276 274 273 271 270 269 268 270 271 275 277 277 277 271 271 274 266 253 246 242 237 235 232 232 231 228 225 223 223
73 68 63 59 54 50 48 47 44 37 35 39 45 46 45 45 45 47 47 44 44 44 42 42 41 42 39 33 32 32 31 30 29 31 34 36 38 39 42 41 39 36 27 21 10 358 352 343 331 321 317 310 300 303 301 290 287 283 281 279 278 277 274 273 271 272 272 273 275 272 269 267 266 258 249 245 242 239 237 234 234 233 230 228 226
73 70 68 64 59 54 49 47 47 44 42 46 49 49 47 47 47 47 45 42 43 43 42 45 42 39 36 31 31 31 33 33 29 27 27 28 29 29 31 32 34 29 21 18 6 353 346 335 322 314 314 309 307 313 304 292 291 288 288 291 290 288 284 280 276 274 272 272 270 269 269 264 260 256 251 247 244 242 241 239 237 235 231 231 230
73 71 71 71 70 65 59 53 52 54 54 57 57 54 52 51 51 49 45 41 40 44 48 49 46 42 37 33 30 29 32 34 32 29 27 27 26 26 25 23 23 19 16 12 3 354 344 336 328 321 318 312 308 307 301 297 296 293 294 293 291 291 289 287 284 280 277 276 272 267 267 266 263 259 254 251 248 245 243 241 239 237 234 235 235
66 65 69 74 74 66 60 56 55 57 59 61 59 57 54 52 54 53 49 43 40 43 46 46 47 45 41 37 33 30 29 29 29 28 27 29 28 26 24 21 19 15 13 10 3 354 348 345 337 328 323 317 311 310 305 299 297 298 298 293 290 288 287 286 285 285 282 280 277 272 267 267 268 266 264 258 254 250 246 242 237 237 236 236 239
63 62 65 69 69 65 61 57 57 58 57 58 57 56 54 53 54 55 51 45 43 44 43 43 42 42 40 38 36 32 30 27 26 25 25 30 30 26 22 20 16 12 10 5 360 354 351 350 344 338 330 323 319 320 316 308 306 306 303 299 294 289 287 285 283 282 282 279 277 275 272 270 269 269 269 266 261 257 253 246 236 233 235 236 240
60 62 62 63 64 66 66 62 61 61 59 59 58 55 54 55 56 55 51 45 46 45 44 42 40 41 40 38 36 32 30 27 24 23 22 25 28 24 21 17 11 9 7 3 357 353 354 352 347 344 337 330 328 327 323 319 319 316 312 308 303 301 297 290 287 283 281 281 279 277 276 274 270 268 268 269 267 262 260 253 237 231 236 238 241
59 63 63 64 67 70 73 71 68 66 64 64 63 60 57 58 58 57 54 49 48 46 44 42 41 42 41 41 39 35 33 29 26 24 21 20 21 21 19 14 8 6 6 2 357 354 356 355 351 346 338 333 330 328 325 322 321 317 314 312 310 309 305 300 296 289 285 284 281 278 277 276 272 270 268 268 270 267 267 259 239 233 239 242 243
61 67 69 70 71 73 76 76 73 69 68 67 67 66 63 62 61 60 58 54 52 50 47 45 43 42 41 41 40 38 35 32 30 27 24 21 20 20 17 11 6 4 2 359 357 356 356 353 350 345 338 332 329 327 326 323 320 315 312 313 312 310 305 303 300 296 292 286 282 281 280 278 275 273 271 269 271 270 268 261 247 243 243 242 244
64 70 76 78 78 77 76 75 74 72 70 69 67 65 64 63 62 60 58 55 52 50 48 45 43 42 40 38 37 36 34 32 31 29 26 23 21 21 19 12 7 5 1 357 357 358 355 352 347 344 338 330 326 328 329 326 321 316 311 311 312 310 305 300 298 298 295 288 285 284 282 281 279 275 273 271 272 272 268 263 258 256 249 246 248
68 70 76 79 81 79 75 74 73 72 71 69 67 64 63 62 61 59 57 55 52 50 47 44 43 42 39 37 34 33 32 30 29 28 26 23 22 23 20 16 13 11 7 1 1 0 358 354 347 345 341 331 328 330 331 327 321 316 311 311 310 305 301 298 296 292 290 291 292 292 288 284 282 279 277 274 273 275 275 273 267 258 254 252 250
73 72 74 76 79 79 76 73 70 70 69 68 66 64 62 60 60 59 57 55 52 49 46 45 43 42 40 36 34 33 30 29 27 27 26 23 23 24 21 18 16 15 13 7 5 2 360 356 348 345 343 335 331 332 333 330 321 314 312 313 310 304 300 301 300 292 288 294 299 301 298 292 288 286 284 279 277 277 277 277 268 256 253 255 253
76 75 76 77 79 80 77 71 66 64 63 62 60 58 58 58 57 58 57 54 53 51 48 46 44 41 37 34 33 31 28 27 26 26 25 23 24 24 22 19 17 16 15 13 9 5 3 0 351 346 345 339 335 337 340 333 320 314 315 314 310 305 302 302 305 301 296 300 307 310 306 302 300 298 295 290 285 281 275 271 267 260 256 258 258
78 79 79 78 78 79 77 72 65 61 60 59 57 55 54 54 54 55 55 53 51 51 49 46 43 39 33 30 28 25 25 26 26 26 26 25 23 22 22 19 17 16 15 13 8 6 5 3 357 351 347 343 341 345 348 337 326 323 322 317 312 307 304 302 303 304 303 308 314 312 304 301 304 306 307 304 296 287 277 270 268 267 263 259 260
84 83 82 82 81 80 78 74 70 64 61 59 57 54 49 47 50 51 51 52 49 46 47 44 41 38 31 26 24 20 21 23 24 26 27 26 23 21 21 19 17 14 13 11 8 6 4 3 1 355 350 346 343 351 354 347 338 333 326 319 316 315 311 301 297 313 316 310 307 303 299 303 307 308 307 307 304 295 287 280 274 274 271 266 262
96 93 91 89 85 81 78 77 74 68 62 57 55 56 53 52 54 52 51 53 51 48 47 45 41 39 33 29 29 26 25 25 25 26 28 26 22 19 19 18 16 13 10 9 8 6 4 3 1 357 352 345 344 353 358 356 346 335 327 321 325 322 314 309 319 322 316 307 302 301 301 304 306 307 306 306 306 303 297 291 283 279 274 270 267
106 101 95 91 84 80 80 80 76 69 62 56 54 55 59 62 62 60 56 53 49 47 48 47 43 39 37 37 37 35 34 32 30 30 31 29 24 20 16 15 16 12 7 6 6 4 1 0 360 358 354 347 343 346 353 357 353 344 335 325 321 316 313 335 331 320 316 312 309 308 303 300 300 301 302 302 302 299 294 292 291 286 278 271 268
103 97 91 85 82 82 82 80 73 66 59 52 51 53 56 59 58 56 53 50 47 45 44 41 39 39 39 39 38 36 36 35 32 31 30 28 25 20 14 11 12 10 6 2 2 359 354 356 358 354 353 351 341 336 340 351 352 350 347 334 322 318 324 334 327 317 320 317 310 310 308 305 303 299 297 297 296 294 290 288 291 290 282 274 269
95 92 88 84 86 86 83 76 68 62 56 51 49 52 55 54 52 48 44 44 46 46 42 36 34 38 38 38 36 32 31 31 29 26 25 23 20 15 10 6 5 6 4 1 0 356 350 352 355 347 345 346 339 333 333 341 341 337 344 337 319 311 314 322 321 312 315 313 309 311 309 306 305 304 303 300 298 297 296 292 292 293 287 278 272
99 99 96 95 94 89 80 72 65 59 53 50 50 54 57 56 54 52 47 46 49 49 46 40 38 40 37 35 33 30 28 27 25 23 21 19 16 13 12 9 6 3 1 0 359 356 351 351 352 345 340 339 337 334 331 335 334 330 336 330 314 306 303 305 307 307 310 310 309 308 305 306 308 308 307 305 305 303 297 292 292 295 295 290 280
113 110 106 104 100 89 79 70 64 58 52 53 54 55 58 57 55 53 51 49 48 48 48 43 40 39 35 31 29 29 28 25 23 19 16 16 14 12 13 12 8 1 356 358 357 353 351 349 349 347 344 341 339 336 332 333 332 331 333 326 317 312 305 300 298 300 303 304 307 307 306 310 309 306 305 305 306 303 296 293 293 291 294 296 288
121 114 110 110 104 92 80 71 63 58 56 56 58 57 57 57 55 51 49 45 42 41 39 36 31 27 25 22 20 20 22 21 19 15 13 13 11 8 8 9 7 0 354 355 353 349 349 348 348 347 346 343 341 338 333 331 331 329 329 325 321 318 312 309 305 303 303 302 306 308 309 311 308 305 306 304 301 299 297 296 295 288 283 286 285
134 130 124 119 112 102 86 76 65 60 59 57 59 58 56 55 52 49 44 39 34 30 27 25 20 15 13 13 13 11 12 12 11 12 11 10 9 7 4 3 4 358 353 351 348 346 346 346 347 345 344 343 340 339 333 330 330 327 327 326 324 323 321 320 317 314 311 306 304 306 309 310 308 307 308 306 304 302 298 295 293 289 283 277 275
163 161 154 150 144 141 135 104 79 66 61 58 58 57 55 52 48 44 39 33 26 21 18 15 11 11 11 11 10 8 8 7 6 7 8 5 4 3 360 356 357 354 349 347 344 343 342 343 346 345 344 343 340 339 334 333 333 329 329 329 326 328 326 321 321 321 316 310 308 306 307 307 306 306 307 308 306 303 299 295 291 290 290 284 273